Notices

What's New in latest Release from April 7th, 2021:

- Updated Glossary, including Speed of Maximum Gust, and Total Hourly Precipitation

- Updated national and regional climate services offices contacts and prices information

- Addition of station inventory lists for 1981-2010, 1971-2000, and 1961-1990 Normals.

If you haven't already, please take our survey and provide feedback about our website: https://eccc.sondage-survey.ca/f/LanguageSelection.aspx?s=442ca660-fcf1-47c0-95a9-59707d6fd709

Hourly Data Report for March 27, 2004

SHERBROOKE A
QUEBEC

45°26'00.000" N
71°41'00.000" W
241.40 m
7028124
71610
YSC

Download Data

Hourly Data (March 2004)
Hourly Data Report for March 27, 2004
TIME
LST
Temp Definition
°C
Dew Point Definition
°C
Rel Hum Definition
%
Precip. Amount Definition
mm

Wind Dir Definition
10's deg

Wind Spd Definition
km/h
Visibility Definition
km
Stn Press Definition
kPa
Hmdx Definition


Wind Chill Definition


Weather Definition


00:00 6.9 6.8 99   25 4 0.3 98.99     Rain
01:00 6.1 6.1 100     0 0.2 99.00     Drizzle
02:00 6.9 6.9 100   26 4 0.2 98.98     Drizzle
03:00 6.5 6.4 99   29 4 0.2 98.99      
04:00 6.8 6.5 98   30 9 0.2 99.05      
05:00 6.1 6.0 99     0 0.2 99.14      
06:00 5.0 4.9 99   30 9 0.5 99.25      
07:00 5.0 4.6 97   26 4 2.7 99.32      
08:00 5.3 5.0 98   27 4 4.8 99.41     Drizzle
09:00 6.4 5.8 96     0 16.1 99.41     Mostly Cloudy
10:00 6.4 5.6 95   34 4 24.1 99.49     Cloudy
11:00 6.6 3.9 83   3 15 19.3 99.53     Cloudy
12:00 7.1 3.4 77   36 13 24.1 99.56     Cloudy
13:00 6.5 2.5 76   3 13 24.1 99.62     Cloudy
14:00 6.8 1.5 69   4 20 24.1 99.64     Cloudy
15:00 6.8 1.2 67   3 15 24.1 99.67     Cloudy
16:00 6.9 1.2 67   3 11 24.1 99.69     Mostly Cloudy
17:00 7.2 1.2 66   4 9 24.1 99.77     Mainly Clear
18:00 5.8 0.8 70   6 4 15.0 99.84      
19:00 4.6 0.5 75   3 6 15.0 99.93      
20:00 2.2 -0.2 84     0 15.0 100.06      
21:00 -0.9 -2.4 90   7 6 15.0 100.06   -3  
22:00 -0.8 -2.2 90     0 15.0 100.16      
23:00 0.8 -1.1 87   4 9 15.0 100.16      

Notes on Data Quality.

Legend

  • E = Estimated
  • M = Missing
  • NA = Not Available*
  • [empty] = Indicates an unobserved value
Date modified: